Cosmos 2219 Rocket - Orbit

View from above orbital plane
View from above orbital plane
View from above satellite
View from above satellite

Ground track
Ground track

The orbit data is extracted from the following two-line orbital elements,

1 22220U 92076B   13137.03575029 -.00000134  00000-0 -43206-4 0   381
2 22220 071.0004 319.7686 0012243 016.7355 129.0382 14.16259061 59498
Epoch (UTC): 17 May 2013 00:51:28
Eccentricity: 0.0012243
inclination: 71.0004°
perigee height: 829 km
apogee height: 847 km
right ascension of ascending node: 319.7686°
argument of perigee: 16.7355°
revolutions per day: 14.16259061
mean anomaly at epoch: 129.0382°
orbit number at epoch: 5949

The dashed part of the orbit path shows where the satellite is in the earth's shadow,  

Developed and maintained by Chris Peat, Heavens-Above GmbH. Please read the updated FAQ before sending e-mail. Imprint. DLR